Location: Unspecified
(17.6330°N, 0.0000°E)
Time: 05:31:29
(UTC+00:00)

Courier 1B Rocket - Pass Details

Date: 04 July 2019
Orbit: 920 x 1202 km, 28.3° (Epoch: 16 August)

Event Time Altitude Azimuth Distance (km) Brightness Sun altitude
Rises 20:05:51 0° 228° (SW) 3,914 8.4 -19.0°
Reaches altitude 10° 20:08:40 10° 223° (SW) 2,996 7.7 -19.6°
Maximum altitude 20:15:48 49° 150° (SSE) 1,475 5.5 -21.0°
Enters shadow 20:18:57 32° 98° (E) 1,893 6.0 -21.6°
